Location: Borbetomagus
(49.6328°N, 8.3592°E)
Time: 17:49:45
(UTC+00:00)

Daily predictions for brighter satellites

Satellite Brightness Start Highest point End
(mag) Time Altitude Azimuth Time Altitude Azimuth Time Altitude Azimuth
Cosmos 839 Rocket 4.4 19:39:41 10° SW 19:45:58 80° NW 19:53:28 10° NE
Meteor 1-25 Rocket 4.2 19:42:06 10° N 19:47:41 79° ENE 19:53:14 10° SSE
Cosmos 2074 Rocket 4.1 19:41:57 10° N 19:48:12 90° N 19:54:25 10° S
SPOT 5 3.0 19:47:51 10° S 19:52:09 65° WSW 19:56:28 10° NNW
Cosmos 1814 Rocket 4.0 19:47:20 10° S 19:52:23 64° ESE 19:57:31 10° NNE
Cosmos 1867 4.2 19:49:42 10° NNW 19:55:01 49° NE 20:00:18 10° ESE
Alouette 2 Rocket 3.6 19:52:27 10° NNW 19:56:03 71° WSW 20:00:28 10° S
Cosmos-2242 3.8 19:52:28 10° SSE 19:56:16 32° E 20:00:05 10° NNE
Nadezhda 1 Rocket 4.1 19:50:29 10° S 19:56:26 59° E 20:02:28 10° NNE
Cosmos 1656 3.9 19:51:46 10° NNW 19:57:25 74° WSW 20:02:57 10° SSE
Cosmos 2154 Rocket 4.1 19:51:52 10° N 19:58:08 89° E 20:04:20 10° S
Cosmos 2184 Rocket 4.2 19:54:52 10° NNW 20:01:07 77° W 20:07:25 10° S
SeaSat 1 4.0 19:58:13 10° E 20:02:14 26° NE 20:06:15 10° N
Cosmos 1933 3.2 19:59:23 10° S 20:03:13 67° E 20:07:04 10° NNE
Okean O Rocket 1.9 19:59:06 10° S 20:03:27 71° WSW 20:07:48 10° NNW
Iridium 4 Rocket 3.6 20:00:41 10° N 20:05:47 83° E 20:11:18 10° S
Meteor PRIRODA 4.5 20:03:26 10° SSW 20:06:12 36° W 20:08:59 10° NNW
SPOT 3 Rocket 4.2 20:03:09 10° SE 20:07:58 42° ENE 20:12:47 10° N
Okean-O 2.7 20:04:33 10° SSE 20:08:57 85° WSW 20:13:22 10° NNW
ERS-1 Rocket 3.1 20:06:00 10° SSE 20:11:00 83° WSW 20:16:04 10° NNW
Cosmos 1743 2.6 20:14:08 10° NNW 20:17:34 73° W 20:20:58 10° S
ISS -3.5 20:16:17 10° WNW 20:19:39 69° N 20:23:00 10° E
Lacrosse 4 Rocket 4.1 20:18:26 10° W 20:21:40 24° NW 20:24:57 10° NNE
Cosmos 2084 Rocket 4.4 20:18:13 10° S 20:21:45 26° ESE 20:25:17 10° ENE
BREEZE-M R/B 4.5 19:57:30 10° W 20:22:00 86° S 20:26:55 10° E
Spot 2 Rocket 3.5 20:17:47 10° SSE 20:22:47 79° ENE 20:27:51 10° NNW
ARIANE 6 FM1 Upper Stage 2.5 20:19:33 10° SW 20:23:33 72° SE 20:27:35 10° NE
NOSS 3-1 (C) 3.4 20:19:17 10° S 20:23:40 39° ESE 20:28:52 10° NE
IKONOS-2 4.4 20:23:20 10° NNE 20:27:27 63° ESE 20:31:31 10° S
Meteor 1-5 Rocket 4.5 20:22:51 10° NNW 20:28:51 82° W 20:34:48 10° S
CZ-4 R/B 4.3 20:28:10 10° WSW 20:29:31 11° W 20:30:53 10° WNW
Cosmos 1833 Rocket 2.7 20:24:20 10° SSW 20:29:53 63° ESE 20:35:29 10° NE
Cosmos 1356 Rocket 4.1 20:28:39 14° SSE 20:31:44 34° E 20:35:29 10° NNE
Cosmos 1733 2.6 20:30:47 10° N 20:33:53 72° E 20:36:07 17° SSE
SL-24 R/B 4.5 20:30:53 14° SSE 20:34:29 73° ENE 20:38:38 10° N
Cosmos 158 Rocket 4.0 20:33:29 10° SSW 20:38:48 87° ESE 20:44:12 10° NNE
USA 245 3.8 20:35:19 12° S 20:39:10 78° WSW 20:44:20 10° NNW
Cosmos 1900 4.4 20:34:17 10° NW 20:39:25 81° SW 20:43:28 17° SSE
Cosmos 2218 Rocket 4.2 20:34:29 10° N 20:40:49 62° ENE 20:46:01 15° SSE
Cosmos 2058 Rocket 3.7 20:39:27 10° SSW 20:43:51 58° WNW 20:48:16 10° N
Helios 1A 4.2 20:43:55 10° N 20:47:45 42° WNW 20:51:33 10° SW
Cosmos 1805 4.4 20:46:09 10° NNE 20:49:06 25° ENE 20:50:42 18° ESE
PSLV R/B 3.3 20:49:41 20° S 20:51:48 82° WSW 20:55:04 10° NNW
Cosmos 1812 Rocket 3.8 20:48:57 17° SSE 20:51:59 49° E 20:56:10 10° NNE
Cosmos 1980 Rocket 2.4 20:47:47 10° NNW 20:53:21 62° ENE 20:57:27 18° SE
NOSS 3-1 (A) 3.8 20:50:27 16° SSE 20:53:25 29° ESE 20:58:10 10° ENE
Terra 3.0 20:50:50 10° SSW 20:55:11 38° W 20:59:35 10° NNW
ATLAS CENTAUR R/B 1.6 20:51:47 10° SW 20:55:27 62° NW 20:59:16 10° NE
USA 234 3.2 20:50:16 10° ENE 20:56:51 79° SE 21:03:24 10° SW
Cosmos 1315 Rocket 3.2 20:55:12 21° SSE 20:57:24 43° E 21:01:07 10° NNE
NOSS 7 (H) 4.3 20:55:10 10° NW 20:58:03 61° SW 20:59:35 26° SSE
Cosmos 1959 Rocket 4.5 20:52:38 10° N 20:58:51 77° E 21:03:44 17° SSE
BREEZE-M DEB (TANK) 4.5 20:37:27 10° W 20:59:23 90° S 21:04:36 10° E
Meteor 1-26 Rocket 4.4 20:54:37 10° S 21:00:30 90° NE 21:06:34 10° NNE
Cosmos 2208 Rocket 4.1 20:55:15 10° S 21:00:32 60° ESE 21:05:47 10° NNE
Cosmos 2181 Rocket 4.1 20:58:42 15° S 21:03:54 62° E 21:10:12 10° NNE
SL-16 R/B 3.9 20:59:29 10° NNW 21:04:08 25° NE 21:08:45 10° E
Meteor 1-11 Rocket 4.5 21:02:24 10° N 21:07:33 38° ENE 21:10:57 19° SE
BlueWalker 3 2.2 21:05:09 10° WNW 21:08:41 48° SSW 21:10:12 29° SSE
SL-24 R/B 4.2 21:05:36 10° NNE 21:09:52 60° ESE 21:12:50 20° S
Cosmos 1125 Rocket 4.3 21:04:53 10° NNW 21:09:58 47° WSW 21:14:02 15° S
Meteor 2-10 4.2 21:04:18 10° NNW 21:10:02 88° ENE 21:13:58 20° SSE
Cosmos 1346 Rocket 4.3 21:08:11 10° NNW 21:11:26 29° W 21:14:32 11° SSW
Cosmos 2322 Rocket 4.2 21:08:43 10° N 21:12:51 20° NE 21:16:58 10° E
Cosmos 2366 rocket 4.2 21:09:42 10° NNW 21:16:05 75° W 21:21:08 17° S
SL-24 DEB 4.2 21:14:17 20° S 21:17:21 82° W 21:21:56 10° N
CZ-4C R/B 4.3 21:16:06 10° NE 21:19:09 25° E 21:19:42 24° ESE
Meteor 1-14 Rocket 4.2 21:14:32 10° N 21:20:10 80° ENE 21:23:50 23° SSE
Ariane Rocket 3.5 21:16:59 17° S 21:20:49 55° W 21:25:49 10° NNW
Cosmos 44 4.1 21:18:24 10° NW 21:22:38 38° WSW 21:25:13 21° S
Cosmos 1238 Rocket 2.4 21:22:13 26° S 21:24:11 87° E 21:27:30 10° N
SL-8 Rocket 4.4 21:18:34 10° NNW 21:24:37 58° W 21:29:41 15° SSW
Cosmos 2298 Rocket 4.1 21:19:25 10° NNW 21:24:46 79° WSW 21:27:57 25° SSE
Cosmos 1697 Rocket 3.6 21:20:07 10° NW 21:25:24 41° WSW 21:29:17 17° S
Nadezhda 3 Rocket 4.4 21:21:58 23° SSE 21:25:34 47° E 21:31:30 10° NNE
Lacrosse 5 rocket 2.4 21:22:55 10° WNW 21:25:45 23° SW 21:26:34 21° SSW
ARIANE 5 R/B 3.9 21:23:51 18° ESE 21:26:02 28° ENE 21:29:46 10° N
Cosmos 1570 Rocket 4.4 21:21:49 10° SSW 21:27:01 67° WNW 21:32:19 10° NNE
CENTAUR R/B 4.2 21:24:48 10° NW 21:31:58 40° NNE 21:40:19 10° E
Cosmos 2360 Rocket 4.1 21:28:19 10° N 21:32:41 22° NE 21:37:01 10° E
ATLAS 3B R/B 3.8 21:30:07 22° SE 21:32:55 28° ESE 21:39:13 10° NE
Meteor 2-6 Rocket 4.3 21:30:19 16° SSW 21:35:05 88° W 21:40:51 10° NNE
Cosmos 1536 2.6 21:32:12 10° N 21:36:02 88° W 21:37:32 35° S
Cosmos 2369 3.7 21:32:36 10° NNW 21:38:19 83° ENE 21:41:29 27° SSE
Cosmos 1867 4.5 21:33:30 10° NW 21:38:30 38° WSW 21:41:23 22° S
SeaSat 1 2.5 21:36:40 28° SSE 21:39:16 68° WSW 21:44:11 10° NW
Cosmos 2221 2.5 21:37:30 23° SSW 21:40:03 73° W 21:44:15 10° N
Cosmos 405 Rocket 3.2 21:37:38 10° N 21:40:52 37° ENE 21:41:40 32° ESE
Cosmos 2150 Rocket 4.4 21:35:42 10° NNW 21:40:59 58° WSW 21:44:04 25° S
Okean 1 3.5 21:42:37 25° SSW 21:44:37 61° WNW 21:48:16 10° N
Cosmos 2082 Rocket 2.2 21:42:04 22° S 21:45:37 62° ESE 21:51:11 10° NE
Cosmos 1674 2.3 21:48:35 43° N 21:48:35 43° N 21:50:12 10° N
ISS -3.2 21:53:10 10° W 21:56:12 40° SW 21:56:12 40° SW
Cosmos 773 Rocket 4.3 21:51:31 11° SW 21:56:21 66° WNW 22:01:28 10° NNE
Okean 3 Rocket 4.0 21:53:16 10° N 21:57:35 51° ENE 21:59:09 34° SE
Meteor 1-10 Rocket 4.3 21:54:20 26° S 21:57:49 79° E 22:03:40 10° NNE
COBE Rocket 3.9 21:53:03 10° NNE 21:58:11 83° ESE 22:00:56 29° S
Cosmos 2239 Rocket 4.5 21:53:06 10° N 21:59:22 85° W 22:02:47 28° S
Landsat 5 4.4 21:55:37 10° NNE 21:59:26 33° E 22:00:10 31° ESE
Cosmos 220 Rocket 4.2 21:57:20 20° SW 22:00:01 64° WNW 22:04:04 10° NNE
Cosmos 2084 Rocket 4.1 21:56:11 10° WSW 22:00:22 54° NW 22:04:32 10° NE
Cosmos 1766 Rocket 3.6 21:56:04 10° NNW 22:00:29 73° W 22:02:12 36° S
COSMOS 2406 3.4 21:59:10 30° S 22:01:45 53° ESE 22:07:18 10° NE
USA 59 Rocket 0.0 22:10:23 38° E 22:10:23 38° E 22:12:33 10° NE
Cosmos 2333 Rocket 3.1 22:06:39 10° NNW 22:12:06 42° NE 22:15:53 18° ESE
MetOp-A 4.0 22:10:43 35° SSE 22:12:57 85° ENE 22:18:09 10° NNW
NOSS 3-1 (C) 4.2 22:09:27 10° WSW 22:14:16 46° NW 22:20:12 10° NE
Cosmos 1151 Rocket 4.2 22:19:28 25° ESE 22:20:09 26° E 22:23:42 10° NNE
NOSS 2-1 (E) 3.3 22:21:20 44° E 22:21:20 44° E 22:23:45 10° NE
ALOS 2 3.1 22:19:44 34° ESE 22:21:15 50° ENE 22:25:31 10° N
Meteor 2-13 Rocket 4.4 22:19:05 31° S 22:22:10 78° E 22:28:19 10° NNE
PKM 4.3 22:19:38 10° W 22:22:24 56° NNW 22:27:03 10° ENE
Cosmos 2219 Rocket 3.8 22:22:55 10° NNW 22:27:50 29° NE 22:32:39 10° ESE
ATLAS CENTAUR R/B 4.3 22:29:58 10° WNW 22:32:19 16° NNW 22:34:42 10° NNE
Meteor 2-4 Rocket 3.9 22:30:52 36° SSE 22:33:05 59° E 22:38:47 10° NNE
Meteor 1-27 Rocket 3.7 22:30:54 32° SSW 22:33:37 85° WNW 22:39:12 10° N
NOSS 2-1 (D) 2.6 22:36:14 88° SW 22:36:16 89° W 22:39:17 10° NE
Cosmos 1980 Rocket 3.6 22:32:27 10° NW 22:36:54 25° WSW 22:39:12 19° SW
Sich 1 2.9 22:33:08 10° N 22:37:24 77° ENE 22:38:23 51° SSE
USA 234 4.0 22:33:22 10° ENE 22:39:43 55° NNW 22:46:03 10° W
Genesis I 3.2 22:38:21 10° NW 22:40:24 45° NW 22:40:24 45° NW
NOSS 3-1 (A) 3.7 22:38:51 10° WSW 22:43:44 56° NW 22:49:44 10° NE
PSLV R/B 4.0 22:42:19 10° NNE 22:46:18 42° E 22:46:52 39° ESE
SL-16 R/B 2.1 22:43:09 10° NNW 22:48:51 79° WSW 22:51:05 39° SSE
Cosmos 1975 3.2 22:46:12 10° NNW 22:49:44 45° W 22:50:13 42° WSW
Cosmos 1707 2.2 22:51:14 77° E 22:51:14 77° E 22:54:34 10° NNE
Cosmos 1500 Rocket 3.4 22:48:07 10° N 22:52:31 90° W 22:53:33 52° S
Cosmos 1538 Rocket 3.9 22:50:41 40° SSW 22:52:36 82° ESE 22:57:47 10° NNE
NOSS 2-1 (C) 3.2 22:55:40 49° W 22:56:11 59° NW 22:59:10 10° NE
Cosmos 2322 Rocket 2.2 22:52:09 10° NNW 22:57:51 78° ENE 23:00:24 34° SE
Spot 4 4.0 22:56:43 42° SSW 22:58:07 59° W 23:02:51 10° NNW
Cosmos 1633 Rocket 4.5 22:55:21 10° N 22:59:11 29° ENE 23:00:47 23° ESE
Cosmos 1408 Rocket 3.7 22:57:06 10° NNW 23:01:24 61° W 23:02:20 47° SSW
Meteor 2-15 Rocket 4.5 22:55:19 10° NNW 23:01:25 71° W 23:04:01 36° S
ARIANE 5 R/B 3.5 23:01:14 32° SW 23:02:16 36° W 23:06:18 10° NNW
Cosmos 1766 4.2 23:02:04 10° NNW 23:05:06 29° W 23:05:17 29° W
Cosmos 1908 3.6 23:03:26 10° NNW 23:06:26 41° W 23:06:26 41° W
Cosmos 1066 Rocket 4.3 23:04:55 39° S 23:07:00 70° E 23:12:44 10° NNE
Cosmos 1470 2.6 23:03:37 10° NNW 23:07:10 63° W 23:07:19 62° WSW
Cosmos 1805 Rocket 3.6 23:04:11 10° NNW 23:08:35 67° W 23:09:35 50° SSW
Cosmos 2278 4.0 23:09:28 10° NW 23:14:56 51° WSW 23:16:39 38° SSW
GP-B 3.1 23:11:08 10° N 23:15:32 71° E 23:16:31 51° SSE
Meteor 1-18 Rocket 4.2 23:14:33 39° S 23:16:53 87° E 23:22:49 10° NNE
Exosat Rocket 3.6 23:11:55 10° NNW 23:16:54 63° WSW 23:18:24 43° S
Cosmos 2360 Rocket 2.1 23:11:47 10° NNW 23:17:27 89° SW 23:19:47 37° SSE
Cosmos 2173 Rocket 4.5 23:12:13 10° N 23:18:29 55° ENE 23:21:47 27° SE
ATLAS 3B R/B 3.0 23:17:16 20° SW 23:22:55 85° NW 23:30:50 10° NE
CENTAUR R/B 3.3 23:15:27 10° NW 23:23:39 89° NE 23:31:24 17° SE
USA 229 DEB 3.4 23:20:46 33° SSW 23:23:42 76° SE 23:30:29 10° NE
USA 229 3.4 23:20:54 33° SSW 23:23:48 76° SE 23:30:34 10° NE
Cosmos 1328 Rocket 4.2 23:23:10 36° ESE 23:24:01 41° E 23:28:04 10° NNE
Spot 1 4.2 23:20:00 10° N 23:24:15 68° WNW 23:25:34 43° SW
ASTEX 1 3.4 23:19:37 10° N 23:24:34 75° E 23:26:06 45° SSE
Cosmos 1743 Rocket 3.8 23:22:27 10° NNW 23:26:50 58° W 23:27:46 47° SW
GEOS 3 Rocket 4.5 23:22:16 10° ESE 23:27:09 48° NE 23:32:06 10° NW
Cosmos 2082 Rocket 3.9 23:25:14 10° WSW 23:30:06 29° NW 23:35:00 10° NNE
Cosmos 1605 Rocket 4.5 23:26:34 10° NNW 23:32:38 49° W 23:35:18 31° SW
Celestis-02/Orion 38 4.5 23:31:28 42° SSE 23:33:13 73° WSW 23:38:18 10° NNW
Cosmos 1842 4.3 23:36:29 28° W 23:37:00 30° WNW 23:40:06 10° N
Cosmos 1420 Rocket 4.1 23:36:35 10° NNW 23:41:50 63° WSW 23:43:26 42° S
Cosmos 2112 Rocket 4.1 23:41:11 42° S 23:42:49 63° ESE 23:47:59 10° NNE
Cosmos 1455 2.3 23:44:38 10° N 23:47:02 45° NE 23:47:02 45° NE
Cosmos 2237 Rocket 4.4 23:43:36 10° NNW 23:48:07 24° NE 23:52:38 10° E
Cosmos 1300 3.1 23:47:47 10° NNW 23:50:26 39° WNW 23:50:26 39° WNW
SL-14 R/B 3.5 23:53:45 47° SE 23:54:20 52° E 23:58:07 10° NNE
